sat.trackr.live / text

‹ back to catalog

STARLINK-32607

NORAD 61977 · 2024-210U

PAYLOAD ACTIVE UNKNOWN

§ Identity

Operator
Country
US
Launch date
2024-11-14
Launch site
AFETR
Launch vehicle
Mass (kg)
RCS (m²)

Purposes: comms

External: N2YO · Heavens-Above · Gunter

§ Orbital elements

Epoch: 2026-09-20T23:18:03.556800Z

Period
94.27 min
Inclination
42.9986°
Eccentricity
0.0000849
Mean motion
15.27592014 rev/d
Perigee alt
482.4 km
Apogee alt
483.6 km
Semi-major
6,861.2 km
B*
4.8716e-4
RAAN
157.1497°
Arg perigee
237.9048°
Mean anomaly
122.1721°
Rev number
10,478

§ Raw data

STARLINK-326071 61977U 24210U   26263.97087450  .00013172  00000+0  48716-3 0  99902 61977  42.9986 157.1497 0000849 237.9048 122.1721 15.27592014104780

JSON: /api/v1/satellites/61977 · /tle

For live sub-satellite position, see the globe view (requires WebGL).

§ Visibility from observer

Set your observer location to see the next 7 days of passes ≥ 10°. The values pass through the URL so the page stays shareable.

No JS? Fill the form by hand. The geolocation button needs JavaScript.